Location: Lavington
(51.2833°N, 1.9833°W)
Time: 13:01:42
(UTC+00:00)

NOSS 3-2 (C) - Pass Details

Date: 01 June 2020
Orbit: 802 x 1410 km, 63.4° (Epoch: 17 June)

Event Time Altitude Azimuth Distance (km) Brightness Sun altitude
Rises 21:16:44 0° 313° (NW) 3,856 8.9 -7.7°
Reaches altitude 10° 21:19:16 10° 316° (NW) 2,981 7.8 -7.9°
Maximum altitude 21:26:28 68° 40° (NE) 1,323 4.3 -8.6°
Drops below altitude 10° 21:34:42 10° 123° (ESE) 3,386 5.7 -9.4°
Enters shadow 21:35:12 - 123° (ESE) 3,550 5.8 -9.4°
